Temp_Advection
nan nan nan nan nan nan nan nan nan nan nan nan nan nan nan nan nan nan nan nan nan nan nan nan nan nan nan nan nan nan nan nan nan nan nan nan nan nan nan nan nan nan nan
nan -3 -3 -2 -2 -2 -2 -1 -1 -1 -0 0 0 -0 -0 -0 -1 -0 -0 -1 -0 -0 -0 -0 -0 -0 -0 -1 -0 1 0 0 1 1 0 1 0 -0 0 0 0 0 nan
nan -1 -1 -1 -0 -0 -0 -1 -1 -1 -0 -0 -0 -0 -0 -0 0 0 -0 -0 -0 -1 -1 -1 -1 -0 -0 -0 -1 -0 0 1 1 0 0 -0 -0 -1 -0 -0 0 -0 nan
nan 1 -0 -1 -0 -0 0 0 -0 0 0 0 -0 -0 -0 -0 -0 0 0 -0 -1 -0 -1 -1 -1 -0 -1 -0 -0 -0 0 0 0 0 0 -1 -0 0 0 0 -0 1 nan
nan 1 -0 -1 -1 -1 -1 -1 -1 -0 0 0 0 0 0 -0 -0 0 0 0 -1 -1 -0 -1 -1 -1 -0 -0 0 0 -0 0 -0 0 0 1 1 -0 0 -0 0 1 nan
nan 0 -0 -1 -2 -1 -1 -2 -2 -1 -0 -0 -0 0 0 0 0 0 0 0 0 -1 -1 -1 -0 -1 -1 -1 -0 0 0 -0 -0 1 1 0 0 0 0 -0 0 -1 nan
nan 0 0 0 -1 -2 -1 -1 -2 -2 -1 -0 -0 -0 0 0 0 0 0 0 -0 -0 -1 -1 -1 -1 -1 -1 -1 0 -0 -0 0 1 0 -0 0 1 1 1 0 -1 nan
nan 1 1 1 1 0 -0 -0 -1 -2 -1 -0 0 -0 -0 -0 0 0 0 0 0 -1 -1 -1 -1 -1 -1 -1 -1 -0 0 0 -0 1 1 0 -0 1 0 -0 1 1 nan
nan 1 0 0 1 1 1 0 -0 -1 -2 -1 -1 -1 0 0 -0 -0 0 0 0 0 -0 -1 -1 -1 -1 -1 -0 -0 1 0 -0 -0 1 0 -0 -0 -0 1 0 0 nan
nan 0 0 0 0 0 0 0 0 -0 -1 -1 -1 -1 -1 -0 -0 -0 0 0 1 0 -1 -1 -1 -1 -1 -0 -0 0 0 0 0 -0 -0 0 0 -0 0 -0 0 0 nan
nan 0 0 0 0 0 -0 0 -0 -1 -1 -1 -1 -1 -1 -1 -0 0 0 0 0 0 -1 -1 -1 -1 -1 -0 0 0 0 0 -0 -0 -0 -0 0 1 0 -0 -1 -0 nan
nan 1 1 0 0 0 -0 -0 0 0 -0 -2 -2 -2 -2 -1 -1 0 0 0 0 -0 -1 -1 -0 -1 -0 -0 -0 -0 0 -0 -0 -0 -0 -0 -0 -0 -0 -1 -0 -0 nan
nan 0 0 0 0 0 0 -1 -0 0 1 -0 -1 -1 -1 -1 -1 0 0 0 0 -0 -0 1 -1 -2 -1 -0 -0 -0 -0 -0 -0 -0 -0 -0 0 -0 -0 -0 -0 0 nan
nan 0 0 -0 -0 1 1 0 -1 -0 0 1 0 0 0 -1 -1 -0 0 0 0 -0 -1 -0 -1 -1 -0 -0 -0 -0 -0 0 0 0 -0 -0 -0 -0 1 1 -0 0 nan
nan 0 0 0 -0 0 1 1 -0 -0 -0 0 1 0 -0 -1 -1 -0 0 0 0 -0 -0 -0 -0 -0 -0 -0 -0 0 0 0 -0 -0 0 0 0 0 0 -0 -0 0 nan
nan 0 0 0 -0 -0 0 0 0 0 0 -0 0 0 0 -1 -1 -0 0 0 -0 -0 0 -0 -0 -1 -0 -0 0 0 -0 -0 0 0 0 0 -0 -0 0 -0 -0 0 nan
nan 0 0 0 0 -0 0 0 1 0 0 -0 0 0 -0 -0 -0 -1 -0 -0 -0 -0 0 0 -0 -0 -0 0 0 -0 -0 0 0 0 0 0 0 -0 -0 -0 0 -0 nan
nan 1 0 0 0 -0 0 0 0 1 0 -0 -0 -0 -0 0 0 -0 -0 -0 -0 0 0 -0 -0 0 0 0 -0 -0 0 0 -0 0 0 -0 -1 -0 -0 -0 0 0 nan
nan 0 0 0 0 0 0 0 0 0 1 0 -0 -0 -0 0 0 -0 -0 -0 -0 -0 0 -0 -0 -0 -1 -1 -1 -0 0 -0 -0 0 -0 -0 -0 -0 -0 0 0 -0 nan
nan 0 0 0 0 0 0 0 -0 -0 -0 0 0 0 0 -0 -0 -0 -0 -0 -0 -0 -0 -0 0 -0 -0 -1 -1 0 0 0 1 1 1 0 0 0 -0 0 1 1 nan
nan 0 0 0 0 0 0 0 0 0 -0 -0 0 0 0 0 -0 -0 -0 -0 -0 -0 0 0 -0 0 0 0 0 1 2 2 1 1 1 1 2 1 1 1 1 1 nan
nan 0 0 0 0 0 0 0 0 0 0 0 0 0 0 0 -0 -0 -0 -0 -0 0 -0 -0 -0 -0 -0 0 0 0 0 1 0 0 0 0 0 0 -0 -0 -0 -0 nan
nan 0 0 0 0 -0 -0 -0 0 0 0 0 0 -0 0 0 0 0 -0 -0 -0 -0 -0 -0 -0 0 0 0 0 0 0 0 0 0 -0 -0 -0 0 0 0 0 0 nan
nan 0 0 0 0 0 0 0 0 0 0 0 0 -0 0 0 -0 -0 -0 -0 -0 -0 -0 -0 -0 -0 -0 0 0 0 0 0 0 0 0 0 0 0 0 0 0 -0 nan
nan 0 0 0 0 0 0 0 0 0 0 0 -0 -0 -0 -0 -0 -0 -0 -0 -0 -0 -0 -0 0 0 -0 -0 0 0 0 0 0 0 0 0 0 0 -0 -0 -0 -0 nan
nan nan nan nan nan nan nan nan nan nan nan nan nan nan nan nan nan nan nan nan nan nan nan nan nan nan nan nan nan nan nan nan nan nan nan nan nan nan nan nan nan nan nan
Wind_Speed
28 31 32 34 37 38 40 39 39 36 32 31 32 36 41 43 42 42 43 46 47 46 45 46 46 45 43 39 37 37 37 38 39 37 38 35 36 34 33 32 30 31 30
33 34 34 32 27 29 30 32 34 38 42 43 40 36 39 41 41 40 41 42 42 46 48 47 47 46 47 45 42 39 39 39 37 39 31 22 34 37 35 34 36 34 33
32 34 32 30 27 28 29 30 31 32 32 35 36 33 34 38 40 39 37 39 38 37 40 46 47 47 46 46 46 44 42 42 40 39 28 10 13 28 36 39 38 38 37
31 31 31 30 27 26 27 27 25 22 22 20 25 28 34 39 40 39 38 38 42 40 39 42 47 45 49 49 47 44 44 42 44 42 42 40 27 19 22 34 42 42 41
30 30 29 28 28 27 26 27 25 22 19 21 23 27 34 37 38 38 38 36 35 38 42 43 43 50 47 49 49 44 44 44 45 47 42 43 42 35 24 25 31 42 45
25 26 28 29 30 29 31 31 28 22 24 22 22 23 27 31 37 39 39 37 35 36 37 39 42 45 50 49 50 47 43 43 44 46 47 43 44 42 36 33 29 30 32
23 28 31 34 35 36 33 32 29 26 21 17 18 26 30 33 35 36 38 39 39 38 37 40 41 43 46 50 48 49 45 42 42 44 45 46 48 46 40 42 30 29 30
21 23 27 30 33 35 35 31 29 29 24 22 21 20 27 31 32 33 36 36 38 39 37 37 40 42 44 46 48 45 46 47 43 41 39 42 46 49 49 49 40 33 33
22 25 26 27 27 29 31 31 29 25 24 24 24 23 21 23 28 31 33 36 36 36 36 35 38 39 41 44 45 46 46 42 42 43 39 37 41 42 44 40 38 39 28
20 24 25 26 27 26 26 26 28 27 24 22 25 23 23 20 20 23 28 32 34 33 32 34 36 38 41 40 41 40 42 40 43 42 39 39 36 36 38 38 38 39 36
20 23 24 24 26 26 26 27 27 30 28 26 25 26 24 18 22 21 22 23 24 30 32 33 33 35 37 38 38 39 39 37 37 36 37 38 37 36 35 37 38 40 41
19 22 23 25 27 29 29 28 28 31 32 33 34 30 23 17 19 21 21 21 24 24 26 30 30 31 31 33 35 36 34 32 34 33 32 33 33 35 36 36 34 37 39
19 22 24 25 27 29 30 29 27 29 31 36 34 26 19 12 14 15 19 20 21 23 25 23 26 24 23 26 28 29 30 30 30 30 27 27 28 31 34 37 39 40 41
17 21 22 24 26 28 30 28 28 28 29 34 30 26 16 8 14 13 15 16 18 18 21 20 22 22 21 22 23 27 28 29 30 30 29 30 31 31 31 34 37 40 38
17 20 21 23 25 28 29 28 29 28 26 32 30 26 18 8 10 11 12 13 14 15 15 18 19 22 26 26 28 29 27 30 32 31 29 29 32 32 31 30 30 32 32
17 19 20 22 24 26 27 27 28 27 25 26 28 23 21 13 7 11 13 14 12 14 18 21 24 28 28 27 29 29 28 28 29 30 30 30 29 29 29 30 29 31 33
16 17 17 20 22 24 25 24 25 25 23 23 26 25 21 17 8 6 12 13 13 13 15 18 20 22 25 29 29 28 29 30 30 29 27 27 31 34 31 30 30 31 32
16 15 16 18 18 21 22 21 21 22 22 22 21 22 22 18 13 6 6 10 15 17 17 16 17 21 25 27 30 30 28 29 30 31 31 30 29 30 29 28 31 32 34
14 14 15 17 17 19 20 19 19 19 20 21 20 19 19 19 15 13 11 8 3 6 9 10 12 16 22 32 34 31 32 33 32 32 33 27 31 27 33 31 28 30 34
15 13 14 15 16 17 18 17 17 18 19 20 19 17 16 14 13 12 13 12 9 8 6 6 4 2 4 7 11 11 16 26 29 26 20 29 26 22 23 19 21 21 19
16 14 13 13 14 15 16 16 15 14 15 16 16 16 14 13 10 10 8 7 8 9 10 9 10 11 13 14 13 15 23 22 20 17 16 16 16 14 14 12 9 8 6
19 17 15 13 13 13 14 15 14 14 13 13 13 13 14 13 12 8 7 7 6 7 9 10 11 11 11 12 13 15 15 15 15 13 10 7 5 4 4 2 1 1 3
21 19 18 16 15 13 13 14 13 12 11 11 12 12 12 11 11 11 10 8 7 9 10 11 12 13 14 12 10 10 10 10 9 9 6 5 5 5 4 4 2 1 2
20 21 20 19 17 15 14 13 12 11 11 10 10 10 9 8 9 9 10 10 11 11 11 11 11 11 11 13 12 11 10 11 9 9 8 7 6 6 6 4 4 5 7
18 21 22 20 18 18 16 15 14 13 11 8 8 9 9 8 7 7 8 9 10 11 11 11 11 10 11 11 10 8 8 8 8 7 7 7 7 7 8 8 8 9 10
17 19 23 23 20 19 18 16 15 14 12 10 9 8 7 7 7 6 5 6 7 8 9 9 8 9 9 7 5 4 4 5 6 4 6 7 8 10 11 12 13 14 15
Wind_Direction
329 317 305 295 288 283 281 279 277 270 271 269 273 276 276 279 273 269 261 256 254 254 253 251 250 249 249 246 244 246 245 245 244 240 229 230 231 233 239 242 246 249 253
338 327 323 322 320 315 307 298 289 281 274 268 268 271 276 277 276 272 270 265 258 251 248 249 249 248 250 250 246 240 242 246 242 233 234 228 228 229 231 238 245 246 249
347 342 340 336 332 329 327 318 309 298 285 275 267 267 273 272 270 270 268 263 260 254 251 245 245 243 244 247 249 246 239 240 242 239 242 215 220 232 232 235 241 244 245
353 344 339 340 338 332 325 325 327 312 306 285 262 267 271 271 272 274 276 270 260 256 249 244 242 246 243 243 245 247 243 240 240 241 241 235 243 232 229 241 242 247 247
353 350 350 348 344 337 328 321 321 308 300 293 281 273 275 274 273 272 273 273 267 257 253 247 243 242 244 243 241 243 243 242 241 241 239 239 233 239 247 238 241 241 245
352 348 349 350 349 346 337 323 313 301 295 287 292 289 284 277 273 273 275 273 271 266 258 250 244 241 240 244 242 241 242 243 242 240 241 237 236 231 233 244 240 242 253
352 352 356 356 353 357 353 342 331 308 301 297 297 285 284 281 277 277 275 274 271 265 257 253 249 243 242 241 242 241 239 243 241 240 238 241 240 246 243 236 238 249 253
347 348 352 352 356 356 357 351 343 335 305 300 280 292 288 278 276 273 273 273 272 268 263 256 250 246 243 242 241 241 242 242 243 242 240 241 243 241 243 242 251 243 250
333 334 337 340 341 350 353 358 352 345 331 297 296 285 288 287 282 275 274 275 273 269 259 252 248 244 244 242 240 238 239 241 242 244 242 242 241 246 243 246 249 256 248
319 326 332 338 342 340 341 350 353 354 346 317 306 294 277 278 288 284 273 273 273 270 258 249 247 242 241 241 240 238 238 241 242 242 243 244 243 246 247 250 252 247 257
317 324 332 337 338 338 342 343 342 339 341 341 333 315 287 282 274 279 282 273 271 264 261 250 248 239 240 240 237 237 239 241 241 241 242 243 245 242 245 245 245 252 255
316 321 328 335 339 344 346 344 343 337 336 336 333 317 303 279 271 268 283 282 275 268 252 251 245 235 237 238 235 236 236 236 240 240 241 244 246 244 246 247 243 248 260
317 323 329 335 339 344 345 347 349 340 340 342 343 341 318 274 267 274 276 275 278 268 251 255 252 232 241 236 235 236 236 237 240 241 240 246 245 247 248 249 249 256 251
307 319 329 336 341 345 347 348 351 349 349 349 353 354 351 291 274 274 286 289 283 276 251 244 246 243 241 239 239 236 238 240 241 244 247 251 251 252 252 246 249 251 253
309 318 327 334 340 346 347 348 351 352 358 360 0 3 357 311 280 269 272 274 282 271 273 262 252 245 245 247 247 242 239 238 240 243 249 252 254 255 257 259 256 254 251
306 314 324 334 341 346 347 349 352 355 3 8 10 8 6 350 283 256 264 264 270 257 258 256 255 252 249 247 245 244 242 243 240 246 255 257 253 254 257 258 259 255 258
305 311 326 334 340 346 347 351 355 356 7 15 15 23 22 18 10 285 259 256 260 269 258 254 256 256 251 248 247 244 243 244 246 254 253 253 253 256 261 259 258 259 258
307 313 324 332 339 345 346 351 356 358 8 17 20 27 33 33 31 18 289 264 262 265 270 265 261 258 256 255 251 246 246 247 249 253 255 257 259 250 250 258 264 260 258
313 315 321 328 337 342 345 351 355 358 2 13 16 21 28 38 41 41 45 40 343 270 263 266 267 269 270 269 265 255 243 245 248 250 255 257 246 250 256 268 268 252 237
311 308 312 322 330 338 342 349 356 360 1 8 10 14 18 24 29 41 52 57 61 71 79 82 81 320 336 338 287 246 232 229 223 222 218 232 251 250 267 255 244 231 213
300 300 301 312 322 333 339 344 351 358 3 1 1 7 14 22 21 11 22 44 56 57 63 64 66 64 73 84 96 150 168 180 179 174 173 198 210 189 193 192 186 189 200
297 297 293 299 310 321 330 338 344 349 357 359 357 2 12 19 21 22 23 22 32 38 50 57 63 61 57 68 84 103 114 120 135 139 131 117 101 88 70 79 21 4 306
292 296 296 296 299 309 319 328 335 339 346 354 353 355 2 16 26 28 38 43 45 48 54 59 67 74 78 79 81 85 95 95 107 110 102 107 115 118 133 140 133 195 294
289 295 294 292 291 299 308 317 324 329 334 342 343 345 353 4 15 29 39 42 51 51 54 58 63 69 78 82 93 100 106 111 110 109 121 130 133 126 106 99 81 48 31
291 287 291 293 294 292 297 305 311 314 316 322 327 327 334 348 4 21 37 38 44 46 46 50 50 59 67 67 71 90 103 114 114 116 123 125 116 102 81 65 54 46 36
288 282 286 289 290 285 286 293 300 304 307 311 311 309 313 324 340 356 15 40 47 42 40 39 39 43 50 57 57 70 92 111 110 135 127 105 83 68 59 52 42 35 28
Height
1516 1512 1508 1504 1499 1497 1493 1491 1488 1488 1487 1484 1483 1483 1481 1482 1482 1482 1484 1487 1490 1493 1496 1498 1501 1504 1506 1508 1511 1512 1514 1516 1519 1522 1522 1524 1527 1528 1530 1531 1533 1533 1535
1509 1504 1499 1495 1492 1487 1484 1480 1477 1475 1474 1474 1473 1473 1472 1470 1471 1472 1472 1475 1478 1481 1485 1487 1489 1493 1495 1498 1502 1504 1507 1509 1512 1514 1516 1516 1520 1521 1523 1525 1526 1527 1529
1506 1499 1494 1490 1485 1481 1477 1472 1468 1464 1462 1461 1462 1463 1463 1461 1461 1462 1463 1464 1468 1471 1474 1478 1480 1483 1485 1487 1491 1495 1498 1501 1504 1507 1506 1509 1509 1515 1516 1518 1520 1521 1522
1504 1498 1491 1485 1480 1476 1472 1467 1462 1457 1455 1454 1454 1454 1454 1451 1452 1452 1454 1456 1459 1461 1464 1466 1471 1473 1476 1478 1480 1485 1489 1494 1494 1498 1500 1502 1504 1505 1509 1511 1512 1514 1515
1501 1496 1489 1483 1478 1473 1468 1463 1458 1454 1451 1450 1449 1447 1446 1444 1444 1443 1444 1445 1448 1451 1454 1457 1460 1462 1466 1468 1472 1476 1479 1483 1488 1488 1491 1495 1497 1500 1498 1502 1503 1506 1508
1500 1496 1491 1483 1476 1469 1463 1457 1452 1449 1447 1443 1442 1440 1439 1438 1437 1437 1436 1437 1439 1443 1443 1446 1448 1452 1455 1458 1462 1466 1470 1473 1477 1480 1483 1484 1487 1489 1493 1495 1499 1497 1501
1498 1493 1487 1480 1472 1466 1460 1453 1448 1444 1441 1438 1436 1437 1434 1432 1430 1430 1429 1430 1430 1432 1433 1438 1440 1442 1445 1448 1453 1458 1461 1463 1467 1469 1473 1476 1479 1483 1486 1491 1490 1490 1495
1494 1491 1486 1480 1474 1467 1460 1452 1445 1439 1436 1434 1431 1429 1428 1425 1422 1422 1422 1421 1423 1423 1424 1428 1431 1434 1436 1439 1443 1448 1453 1456 1458 1461 1464 1467 1471 1475 1478 1481 1485 1486 1487
1491 1488 1484 1479 1473 1467 1460 1451 1443 1437 1432 1429 1427 1424 1421 1419 1416 1414 1414 1414 1414 1413 1415 1420 1423 1425 1429 1432 1434 1440 1442 1448 1451 1453 1456 1459 1461 1466 1470 1473 1476 1479 1479
1490 1487 1482 1476 1470 1464 1457 1450 1443 1435 1428 1424 1421 1416 1413 1411 1410 1408 1407 1406 1406 1406 1408 1411 1415 1418 1421 1424 1428 1431 1434 1439 1442 1445 1449 1452 1456 1458 1461 1465 1468 1470 1472
1487 1483 1478 1474 1468 1462 1455 1448 1440 1433 1425 1419 1414 1408 1405 1402 1403 1402 1401 1401 1400 1399 1401 1403 1407 1411 1414 1417 1421 1424 1427 1431 1434 1437 1440 1444 1449 1452 1453 1456 1460 1462 1465
1483 1479 1475 1471 1465 1458 1452 1444 1438 1430 1422 1415 1407 1399 1394 1395 1395 1395 1395 1395 1394 1394 1394 1398 1401 1404 1407 1410 1414 1417 1420 1423 1427 1430 1433 1436 1440 1443 1445 1448 1451 1453 1455
1480 1476 1473 1468 1462 1456 1448 1441 1435 1426 1419 1411 1400 1392 1387 1386 1389 1391 1391 1391 1390 1389 1390 1395 1394 1402 1404 1406 1410 1412 1415 1418 1422 1424 1426 1429 1433 1435 1438 1440 1442 1443 1446
1476 1473 1470 1464 1458 1452 1446 1439 1432 1424 1417 1408 1398 1390 1385 1383 1385 1387 1389 1388 1387 1387 1386 1391 1394 1397 1400 1403 1405 1408 1410 1412 1415 1418 1420 1422 1425 1427 1430 1432 1434 1436 1438
1473 1470 1466 1461 1455 1449 1443 1437 1430 1422 1415 1407 1398 1391 1386 1383 1383 1385 1386 1386 1385 1386 1387 1388 1390 1393 1396 1399 1401 1402 1404 1406 1409 1411 1413 1415 1417 1419 1422 1424 1427 1429 1429
1470 1467 1463 1458 1453 1447 1441 1434 1428 1422 1415 1409 1400 1393 1388 1383 1382 1383 1384 1384 1385 1385 1386 1388 1388 1390 1391 1392 1394 1396 1398 1400 1403 1405 1407 1409 1410 1412 1415 1416 1418 1420 1422
1465 1463 1459 1456 1451 1446 1440 1434 1427 1422 1417 1410 1404 1397 1391 1386 1383 1382 1382 1382 1383 1384 1385 1385 1385 1385 1385 1385 1387 1390 1391 1393 1396 1398 1400 1402 1403 1405 1406 1409 1411 1412 1414
1462 1460 1457 1453 1449 1445 1440 1434 1429 1423 1418 1412 1406 1401 1395 1390 1387 1384 1382 1381 1382 1382 1382 1381 1381 1381 1380 1380 1380 1382 1384 1386 1388 1390 1392 1394 1395 1397 1399 1401 1402 1403 1405
1457 1455 1452 1450 1447 1443 1438 1433 1429 1424 1419 1414 1409 1404 1400 1396 1391 1386 1384 1381 1379 1377 1377 1376 1375 1374 1372 1369 1370 1374 1376 1378 1381 1383 1386 1388 1388 1389 1392 1392 1392 1391 1392
1452 1450 1448 1446 1443 1441 1437 1433 1428 1424 1419 1415 1411 1407 1403 1399 1396 1392 1388 1386 1383 1380 1377 1373 1371 1370 1369 1365 1362 1363 1366 1369 1372 1376 1377 1380 1381 1382 1385 1385 1385 1385 1386
1447 1446 1443 1441 1440 1437 1435 1432 1428 1423 1420 1416 1413 1409 1405 1401 1399 1396 1392 1389 1386 1384 1381 1378 1375 1371 1368 1366 1364 1362 1361 1365 1369 1370 1372 1373 1374 1377 1379 1379 1381 1380 1382
1444 1442 1440 1438 1436 1434 1431 1429 1426 1423 1420 1417 1414 1410 1407 1403 1399 1397 1395 1392 1389 1386 1382 1381 1378 1375 1373 1372 1370 1369 1368 1369 1370 1373 1373 1373 1376 1376 1376 1378 1378 1378 1379
1440 1439 1437 1435 1433 1431 1429 1427 1424 1421 1418 1416 1413 1411 1408 1405 1402 1399 1395 1392 1390 1388 1385 1382 1380 1379 1377 1375 1374 1373 1373 1373 1373 1374 1375 1376 1377 1377 1378 1378 1377 1377 1377
1436 1435 1433 1432 1430 1428 1426 1424 1422 1420 1418 1415 1413 1410 1408 1405 1403 1401 1398 1395 1391 1389 1387 1385 1383 1381 1380 1379 1379 1378 1377 1377 1376 1376 1377 1378 1378 1378 1377 1377 1376 1375 1374
1431 1430 1429 1428 1426 1425 1423 1422 1419 1417 1414 1413 1411 1409 1407 1406 1404 1402 1400 1396 1394 1392 1389 1387 1385 1383 1381 1381 1380 1380 1380 1379 1379 1379 1379 1379 1379 1377 1376 1375 1374 1374 1373
1423 1422 1423 1422 1421 1419 1418 1417 1416 1415 1413 1411 1410 1409 1407 1404 1403 1401 1399 1397 1395 1393 1391 1388 1387 1385 1383 1382 1382 1381 1381 1381 1380 1381 1379 1378 1376 1375 1375 1374 1374 1372 1370